FW3334 Weather Reports


Display with metric or nautical units.
time (UTC)temp
F
wind
direction
speed
MPH
gust
MPH
rain 1hr
in
rain 24hr
in
rain mn
in
humidity
%
barometer
mb
20260906144009 87 97 5.0 13.0 0.00 0.00 0.00 72 1003.4
20260906143503 87 108 4.0 10.0 0.00 0.00 0.00 72 1003.3
20260906142957 87 129 4.0 10.0 0.00 0.00 0.00 73 1003.4
20260906142451 87 105 4.0 9.0 0.00 0.00 0.00 73 1003.4
20260906141945 86 105 4.0 9.0 0.00 0.00 0.00 73 1003.4
20260906141439 86 135 4.0 9.0 0.00 0.00 0.00 74 1003.4
20260906141203 86 70 4.0 10.0 0.00 0.00 0.00 73 1003.4
20260906140703 85 162 4.0 10.0 0.00 0.00 0.00 74 1003.3
20260906140204 85 110 4.0 8.0 0.00 0.00 0.00 73 1003.3
20260906135705 85 50 5.0 9.0 0.00 0.00 0.00 74 1003.3
20260906134933 85 68 4.0 9.0 0.00 0.00 0.00 74 1003.3
20260906134433 85 125 4.0 10.0 0.00 0.00 0.00 74 1003.3
20260906133931 84 57 4.0 10.0 0.00 0.00 0.00 74 1003.3
20260906133431 84 142 4.0 8.0 0.00 0.00 0.00 74 1003.2
20260906132931 84 51 3.0 7.0 0.00 0.00 0.00 75 1003.3
20260906132430 83 37 3.0 6.0 0.00 0.00 0.00 75 1003.3
20260906131929 83 70 3.0 6.0 0.00 0.00 0.00 75 1003.3
20260906131429 83 20 3.0 6.0 0.00 0.00 0.00 76 1003.3
20260906130927 83 37 3.0 6.0 0.00 0.00 0.00 76 1003.3
20260906130425 82 9 3.0 4.0 0.00 0.00 0.00 76 1003.2
20260906125925 82 29 2.0 4.0 0.00 0.00 0.00 76 1003.2
20260906125425 82 30 2.0 4.0 0.00 0.00 0.00 76 1003.3
20260906124925 82 30 2.0 4.0 0.00 0.00 0.00 77 1003.3
20260906124425 82 34 1.0 4.0 0.00 0.00 0.00 77 1003.4
20260906124149 81 27 1.0 3.0 0.00 0.00 0.00 77 1003.3
20260906123648 81 42 2.0 4.0 0.00 0.00 0.00 77 1003.2
20260906123147 80 37 2.0 4.0 0.00 0.00 0.00 78 1003.1
20260906122415 80 35 3.0 5.0 0.00 0.00 0.00 78 1002.9
20260906121915 80 18 2.0 5.0 0.00 0.00 0.00 78 1002.7
20260906121646 80 22 0.0 4.0 0.00 0.00 0.00 78 1002.7
20260906120913 0 37 0.0 0.0 0.00 0.00 0.00 1002.6
20260906120411 0 0.0 0.0 0.00 0.00 0.00 1002.6
20260906120050 0 0.0 0.0 0.00 0.00 0.00 1002.5
20260906115547 0 0.0 0.0 0.00 0.00 0.00 1002.5
20260906114727 0 0.0 0.0 0.00 0.00 0.00 1002.3
20260906114217 0 0.0 0.0 0.00 0.00 0.00 1002.2
20260906113715 0 0.0 0.0 0.00 0.00 0.00 1002.1
20260906113120 0 0.0 0.0 0.00 0.00 0.00 1002.1
20260906112617 0 0.0 0.0 0.00 0.00 0.00 1002.1
20260906112024 0 0.0 0.0 0.00 0.00 0.00 1002.0
20260906111511 0 0.0 0.0 0.00 0.00 0.00 1001.9
20260906110919 0 0.0 0.0 0.00 0.00 0.00 1001.9
20260906110417 0 0.0 0.0 0.00 0.00 0.00 1001.8
20260906105825 0 0.0 0.0 0.00 0.00 0.00 1001.9
20260906105315 0 0.0 0.0 0.00 0.00 0.00 1001.9
20260906104815 0 0.0 0.0 0.00 0.00 0.00 1001.8
20260906104221 0 0.0 0.0 0.00 0.00 0.00 1001.8
20260906103719 0 32 0.0 0.0 0.00 0.00 0.00 1001.9
20260906103126 80 32 0.0 0.0 0.00 0.00 0.00 78 1002.0
20260906102617 80 32 0.0 0.0 0.00 0.00 0.00 78 1001.9
20260906102116 80 25 0.0 2.0 0.00 0.00 0.00 78 1001.9
20260906101614 80 39 0.0 2.0 0.00 0.00 0.00 77 1001.9
20260906101115 80 37 0.0 0.0 0.00 0.00 0.00 78 1001.8
20260906100610 80 47 0.0 0.0 0.00 0.00 0.00 78 1001.8
20260906100111 80 34 0.0 0.0 0.00 0.00 0.00 77 1001.8
20260906095608 80 34 0.0 0.0 0.00 0.00 0.00 77 1001.7
20260906095339 80 39 0.0 0.0 0.00 0.00 0.00 77 1001.6
20260906094609 80 47 0.0 0.0 0.00 0.00 0.00 77 1001.6
20260906094108 80 32 0.0 0.0 0.00 0.00 0.00 77 1001.6
20260906093839 80 25 0.0 0.0 0.00 0.00 0.00 77 1001.6
20260906093108 80 35 0.0 1.0 0.00 0.00 0.00 77 1001.6
20260906092609 80 23 0.0 2.0 0.00 0.00 0.00 77 1001.6
20260906092108 80 31 1.0 3.0 0.00 0.00 0.00 76 1001.6
20260906091613 80 51 1.0 4.0 0.00 0.00 0.00 75 1001.6
20260906091609 80 29 1.0 3.0 0.00 0.00 0.00 75 1001.7
20260906090608 80 29 2.0 4.0 0.00 0.00 0.00 75 1001.5
20260906090109 80 19 1.0 3.0 0.00 0.00 0.00 75 1001.5
20260906085840 80 30 1.0 3.0 0.00 0.00 0.00 75 1001.6
20260906085105 80 36 2.0 4.0 0.00 0.00 0.00 75 1001.6
20260906084605 80 28 2.0 4.0 0.00 0.00 0.00 75 1001.5
20260906084105 80 30 2.0 4.0 0.00 0.00 0.00 75 1001.5
20260906083605 80 20 2.0 4.0 0.00 0.00 0.00 75 1001.4
20260906083104 80 31 1.0 4.0 0.00 0.00 0.00 75 1001.5
20260906082605 80 28 0.0 3.0 0.00 0.00 0.00 76 1001.5
20260906082335 80 61 0.0 0.0 0.00 0.00 0.00 77 1001.5
20260906081605 80 94 0.0 0.0 0.00 0.00 0.00 77 1001.5
20260906081105 80 94 0.0 0.0 0.00 0.00 0.00 77 1001.5
20260906080831 80 94 0.0 0.0 0.00 0.00 0.00 77 1001.5
20260906075600 80 94 0.0 0.0 0.00 0.00 0.00 76 1001.4
20260906075101 81 94 0.0 0.0 0.00 0.00 0.00 75 1001.4
20260906074600 81 94 0.0 0.0 0.00 0.00 0.00 75 1001.4
20260906074331 81 94 0.0 0.0 0.00 0.00 0.00 74 1001.5
20260906073831 81 105 0.0 0.0 0.00 0.00 0.00 74 1001.4
20260906073101 81 105 0.0 0.0 0.00 0.00 0.00 74 1001.4
20260906072601 81 105 0.0 0.0 0.00 0.00 0.00 74 1001.5
20260906072101 81 106 0.0 0.0 0.00 0.00 0.00 73 1001.4
20260906071601 81 106 1.0 3.0 0.00 0.00 0.00 73 1001.5
20260906071100 82 106 1.0 3.0 0.00 0.00 0.00 73 1001.5
20260906070559 83 103 0.0 3.0 0.00 0.00 0.00 70 1001.5
20260906070058 83 15 0.0 0.0 0.00 0.00 0.00 69 1001.5
20260906065557 83 15 0.0 0.0 0.00 0.00 0.00 70 1001.5
20260906065054 83 14 0.0 0.0 0.00 0.00 0.00 69 1001.6
20260906064823 83 14 0.0 0.0 0.00 0.00 0.00 69 1001.5
20260906064050 84 21 0.0 0.0 0.00 0.00 0.00 68 1001.5
20260906063548 84 18 0.0 0.0 0.00 0.00 0.00 68 1001.6
20260906063046 84 348 0.0 0.0 0.00 0.00 0.00 68 1001.7
20260906062544 84 1 0.0 0.0 0.00 0.00 0.00 68 1001.7
20260906062043 84 359 0.0 0.0 0.00 0.00 0.00 68 1001.7
20260906061540 84 1 0.0 0.0 0.00 0.00 0.00 68 1001.7
20260906061309 84 15 0.0 1.0 0.00 0.00 0.00 68 1001.7
20260906060538 84 24 0.0 3.0 0.00 0.00 0.00 68 1001.7
20260906060031 84 18 0.0 3.0 0.00 0.00 0.00 68 1001.7
20260906055526 84 16 0.0 3.0 0.00 0.00 0.00 68 1001.7
20260906055019 84 11 0.0 3.0 0.00 0.00 0.00 68 1001.8
20260906054514 84 11 0.0 0.0 0.00 0.00 0.00 69 1001.7
20260906054007 84 11 0.0 0.0 0.00 0.00 0.00 69 1001.8
20260906053501 83 18 0.0 0.0 0.00 0.00 0.00 69 1001.8
20260906052956 83 32 1.0 2.0 0.00 0.00 0.00 70 1001.8
20260906052450 83 12 1.0 4.0 0.00 0.00 0.00 70 1001.8
20260906051945 83 30 1.0 4.0 0.00 0.00 0.00 71 1001.7
20260906051438 83 27 0.0 2.0 0.00 0.00 0.00 72 1001.7
20260906051203 83 301 0.0 1.0 0.00 0.00 0.00 72 1001.6
20260906050928 83 297 0.0 0.0 0.00 0.00 0.00 72 1001.6
20260906045920 83 293 0.0 0.0 0.00 0.00 0.00 73 1001.6
20260906045653 83 291 0.0 1.0 0.00 0.00 0.00 73 1001.6
20260906044921 84 290 0.0 2.0 0.00 0.00 0.00 72 1001.6
20260906044421 84 274 0.0 2.0 0.00 0.00 0.00 71 1001.5
20260906043922 85 253 0.0 1.0 0.00 0.00 0.00 70 1001.4
20260906043421 86 251 0.0 0.0 0.00 0.00 0.00 68 1001.3
20260906042925 87 251 0.0 1.0 0.00 0.00 0.00 67 1001.4
20260906042921 87 251 0.0 1.0 0.00 0.00 0.00 67 1001.4
20260906042153 87 251 0.0 0.0 0.00 0.00 0.00 66 1001.4
20260906041421 88 251 0.0 0.0 0.00 0.00 0.00 65 1001.4
20260906040921 88 251 0.0 0.0 0.00 0.00 0.00 64 1001.4
20260906040651 88 251 0.0 0.0 0.00 0.00 0.00 64 1001.4
20260906035920 88 251 0.0 0.0 0.00 0.00 0.00 64 1001.5
20260906035421 88 251 0.0 0.0 0.00 0.00 0.00 64 1001.4
20260906035152 88 251 0.0 0.0 0.00 0.00 0.00 65 1001.5
20260906034652 88 251 0.0 0.0 0.00 0.00 0.00 64 1001.5
20260906033918 88 251 0.0 0.0 0.00 0.00 0.00 64 1001.7
20260906033420 88 251 0.0 0.0 0.00 0.00 0.00 63 1001.6
20260906032919 88 251 0.0 0.0 0.00 0.00 0.00 63 1001.6
20260906032419 88 251 0.0 0.0 0.00 0.00 0.00 62 1001.7
20260906031919 89 251 0.0 0.0 0.00 0.00 0.00 62 1001.7
20260906031419 89 251 0.0 0.0 0.00 0.00 0.00 62 1001.7
20260906030919 89 251 0.0 2.0 0.00 0.00 0.00 62 1001.6
20260906030419 88 251 0.0 2.0 0.00 0.00 0.00 62 1001.7
20260906025918 88 236 0.0 0.0 0.00 0.00 0.00 63 1001.6
20260906025647 88 236 0.0 0.0 0.00 0.00 0.00 63 1001.7
20260906024916 88 236 0.0 0.0 0.00 0.00 0.00 63 1001.6
20260906024417 88 236 0.0 0.0 0.00 0.00 0.00 62 1001.5
20260906023914 88 236 0.0 0.0 0.00 0.00 0.00 62 1001.6
20260906023413 88 237 0.0 0.0 0.00 0.00 0.00 63 1001.5
20260906022913 89 238 0.0 0.0 0.00 0.00 0.00 62 1001.5
20260906022412 89 237 0.0 0.0 0.00 0.00 0.00 62 1001.5
20260906022143 89 238 0.0 0.0 0.00 0.00 0.00 62 1001.3
20260906021408 88 238 0.0 0.0 0.00 0.00 0.00 62 1001.1
20260906020909 88 238 0.0 1.0 0.00 0.00 0.00 63 1000.9
20260906020408 88 237 1.0 8.0 0.00 0.00 0.00 63 1001.0
20260906020140 89 214 1.0 9.0 0.00 0.00 0.00 63 1000.9
20260906015409 90 212 0.0 9.0 0.00 0.00 0.00 59 1000.6
20260906014908 90 166 0.0 0.0 0.00 0.00 0.00 59 1000.5
20260906014408 89 166 0.0 0.0 0.00 0.00 0.00 59 1000.5
20260906013908 89 165 0.0 0.0 0.00 0.00 0.00 60 1000.6
20260906013408 90 166 0.0 0.0 0.00 0.00 0.00 60 1000.5
20260906012905 91 166 0.0 0.0 0.00 0.00 0.00 58 1000.4
20260906012404 91 166 0.0 0.0 0.00 0.00 0.00 58 1000.4
20260906011904 92 166 0.0 0.0 0.00 0.00 0.00 57 1000.2
20260906011636 92 166 0.0 0.0 0.00 0.00 0.00 57 1000.3
20260906010905 92 166 0.0 0.0 0.00 0.00 0.00 57 1000.3
20260906010404 92 166 0.0 0.0 0.00 0.00 0.00 57 1000.2
20260906010136 93 166 0.0 0.0 0.00 0.00 0.00 56 1000.1
20260906005405 93 166 0.0 0.0 0.00 0.00 0.00 55 1000.2
20260906004904 93 166 0.0 0.0 0.00 0.00 0.00 55 1000.2
20260906004404 93 166 0.0 0.0 0.00 0.00 0.00 55 1000.1
20260906003904 93 166 0.0 0.0 0.00 0.00 0.00 55 1000.2
20260906003404 94 166 0.0 0.0 0.00 0.00 0.00 54 1000.2
20260906002905 95 166 0.0 0.0 0.00 0.00 0.00 53 1000.2
20260906002635 96 166 0.0 0.0 0.00 0.00 0.00 52 1000.1
20260906001903 96 166 0.0 0.0 0.00 0.00 0.00 51 1000.1
20260906001634 96 166 0.0 0.0 0.00 0.00 0.00 51 1000.1
20260906001134 97 172 0.0 0.0 0.00 0.00 0.00 50 1000.2
20260906000403 97 165 0.0 0.0 0.00 0.00 0.00 49 1000.3
20260905235900 98 160 0.0 0.0 0.00 0.00 0.00 48 1000.3
20260905235356 98 195 0.0 0.0 0.00 0.00 0.00 47 1000.3
20260905234854 99 201 0.0 0.0 0.00 0.00 0.00 46 1000.3
20260905234353 99 103 0.0 0.0 0.00 0.00 0.00 46 1000.4
20260905234118 100 106 0.0 3.0 0.00 0.00 0.00 45 1000.4
20260905233341 100 228 1.0 3.0 0.00 0.00 0.00 45 1000.3
20260905232838 100 188 2.0 5.0 0.00 0.00 0.00 44 1000.4
20260905232338 100 89 2.0 6.0 0.00 0.00 0.00 44 1000.4
20260905231839 100 106 2.0 7.0 0.00 0.00 0.00 43 1000.4
20260905231339 100 116 3.0 7.0 0.00 0.00 0.00 43 1000.5
20260905230841 100 115 2.0 7.0 0.00 0.00 0.00 42 1000.4
20260905230837 100 145 3.0 7.0 0.00 0.00 0.00 43 1000.4
20260905225836 100 105 2.0 6.0 0.00 0.00 0.00 42 1000.4
20260905225334 100 123 4.0 11.0 0.00 0.00 0.00 41 1000.4
20260905224834 100 119 4.0 11.0 0.00 0.00 0.00 40 1000.4
20260905224334 101 105 3.0 8.0 0.00 0.00 0.00 40 1000.4
20260905223832 101 131 4.0 10.0 0.00 0.00 0.00 40 1000.4
20260905223333 100 126 6.0 10.0 0.00 0.00 0.00 40 1000.3
20260905222832 101 117 4.0 10.0 0.00 0.00 0.00 39 1000.4
20260905222604 101 68 4.0 11.0 0.00 0.00 0.00 39 1000.3
20260905222103 101 155 5.0 11.0 0.00 0.00 0.00 39 1000.3
20260905221333 101 115 5.0 10.0 0.00 0.00 0.00 39 1000.3
20260905221102 101 158 5.0 9.0 0.00 0.00 0.00 39 1000.3
20260905220326 101 212 3.0 9.0 0.00 0.00 0.00 39 1000.3
20260905215819 101 136 2.0 7.0 0.00 0.00 0.00 40 1000.3
20260905215314 101 220 2.0 7.0 0.00 0.00 0.00 40 1000.3
20260905214808 101 167 3.0 7.0 0.00 0.00 0.00 40 1000.3
20260905214302 101 154 3.0 8.0 0.00 0.00 0.00 41 1000.3
20260905213755 101 226 3.0 8.0 0.00 0.00 0.00 41 1000.4
20260905213250 101 138 3.0 7.0 0.00 0.00 0.00 42 1000.3
20260905212744 100 192 3.0 7.0 0.00 0.00 0.00 42 1000.4
20260905212237 100 131 3.0 6.0 0.00 0.00 0.00 43 1000.5
20260905211732 99 129 2.0 6.0 0.00 0.00 0.00 45 1000.5
20260905211226 99 136 2.0 6.0 0.00 0.00 0.00 46 1000.6
20260905210719 98 121 2.0 5.0 0.00 0.00 0.00 46 1000.7
20260905210445 98 198 2.0 5.0 0.00 0.00 0.00 47 1000.7
20260905205708 98 117 2.0 5.0 0.00 0.00 0.00 48 1000.8
20260905205201 98 108 2.0 5.0 0.00 0.00 0.00 48 1000.8
20260905205157 99 188 2.0 6.0 0.00 0.00 0.00 47 1000.9
20260905204150 99 205 2.0 7.0 0.00 0.00 0.00 47 1000.9
20260905203644 99 130 2.0 7.0 0.00 0.00 0.00 47 1001.1
20260905203137 99 97 3.0 11.0 0.00 0.00 0.00 47 1001.2
20260905202632 99 219 5.0 12.0 0.00 0.00 0.00 47 1001.2
20260905202125 99 139 4.0 12.0 0.00 0.00 0.00 47 1001.3
20260905201620 99 124 4.0 8.0 0.00 0.00 0.00 47 1001.3
20260905201113 100 116 5.0 10.0 0.00 0.00 0.00 45 1001.4
20260905200608 100 165 6.0 12.0 0.00 0.00 0.00 44 1001.4
20260905195555 101 104 5.0 13.0 0.00 0.00 0.00 44 1001.4
20260905195050 101 152 6.0 14.0 0.00 0.00 0.00 44 1001.6
20260905194544 101 94 7.0 14.0 0.00 0.00 0.00 44 1001.5
20260905194038 102 129 7.0 14.0 0.00 0.00 0.00 44 1001.6
20260905193533 102 309 6.0 13.0 0.00 0.00 0.00 43 1001.7
20260905193529 102 124 7.0 14.0 0.00 0.00 0.00 45 1001.7
20260905192519 101 132 7.0 14.0 0.00 0.00 0.00 46 1001.7
20260905192013 102 113 6.0 14.0 0.00 0.00 0.00 44 1001.8
20260905191512 102 134 6.0 14.0 0.00 0.00 0.00 44 1001.9
20260905191010 102 122 5.0 11.0 0.00 0.00 0.00 44 1002.0
20260905190510 102 196 5.0 13.0 0.00 0.00 0.00 43 1002.0
20260905190011 102 231 5.0 13.0 0.00 0.00 0.00 45 1002.1
20260905185508 103 113 5.0 14.0 0.00 0.00 0.00 44 1002.1
20260905185008 103 221 5.0 14.0 0.00 0.00 0.00 44 1002.2
20260905184739 103 110 4.0 10.0 0.00 0.00 0.00 44 1002.2
20260905184008 103 184 3.0 10.0 0.00 0.00 0.00 44 1002.2
20260905183507 102 142 4.0 13.0 0.00 0.00 0.00 44 1002.3
20260905183007 102 164 5.0 13.0 0.00 0.00 0.00 44 1002.3
20260905182509 103 226 3.0 9.0 0.00 0.00 0.00 43 1002.3
20260905182007 102 237 3.0 9.0 0.00 0.00 0.00 42 1002.3
20260905181508 103 238 2.0 8.0 0.00 0.00 0.00 42 1002.3
20260905181007 102 221 2.0 7.0 0.00 0.00 0.00 44 1002.4
20260905180507 102 256 2.0 7.0 0.00 0.00 0.00 43 1002.6
20260905180002 102 243 2.0 8.0 0.00 0.00 0.00 46 1002.7
20260905175501 100 11 4.0 11.0 0.00 0.00 0.00 44 1002.7
20260905175230 100 107 4.0 11.0 0.00 0.00 0.00 44 1002.8
20260905174459 100 48 2.0 10.0 0.00 0.00 0.00 43 1002.8
20260905174000 101 236 2.0 7.0 0.00 0.00 0.00 43 1002.8
20260905173458 100 228 3.0 10.0 0.00 0.00 0.00 45 1002.8
20260905172957 99 150 5.0 10.0 0.00 0.00 0.00 44 1002.9
20260905172459 99 61 6.0 11.0 0.00 0.00 0.00 45 1003.0
20260905171958 100 49 4.0 11.0 0.00 0.00 0.00 43 1003.1
20260905171729 101 342 2.0 9.0 0.00 0.00 0.00 45 1003.1
20260905170958 101 77 2.0 9.0 0.00 0.00 0.00 43 1003.2
20260905170453 102 21 3.0 9.0 0.00 0.00 0.00 43 1003.3
20260905170224 101 269 2.0 9.0 0.00 0.00 0.00 44 1003.3
20260905165724 100 354 2.0 8.0 0.00 0.00 0.00 44 1003.5
20260905165225 101 51 3.0 10.0 0.00 0.00 0.00 43 1003.6
20260905164453 102 349 2.0 10.0 0.00 0.00 0.00 42 1003.5
20260905163954 103 313 1.0 5.0 0.00 0.00 0.00 44 1003.6
20260905163453 102 321 1.0 5.0 0.00 0.00 0.00 45 1003.7
20260905162954 100 25 2.0 6.0 0.00 0.00 0.00 47 1003.7
20260905162454 99 162 4.0 10.0 0.00 0.00 0.00 49 1003.8
20260905161954 99 80 3.0 10.0 0.00 0.00 0.00 48 1003.8
20260905161454 101 333 2.0 6.0 0.00 0.00 0.00 47 1003.9
20260905160953 100 255 1.0 5.0 0.00 0.00 0.00 49 1003.8
20260905160454 98 1 1.0 5.0 0.00 0.00 0.00 50 1003.9
20260905155953 97 276 1.0 4.0 0.00 0.00 0.00 51 1003.9
20260905155455 97 252 4.0 10.0 0.00 0.00 0.00 52 1003.9
20260905154954 96 30 4.0 10.0 0.00 0.00 0.00 51 1003.9
20260905154451 97 30 2.0 10.0 0.00 0.00 0.00 52 1004.0
20260905154223 98 48 3.0 10.0 0.00 0.00 0.00 51 1004.0
20260905153451 97 244 3.0 9.0 0.00 0.00 0.00 53 1004.0
20260905152952 96 21 4.0 9.0 0.00 0.00 0.00 53 1004.0
20260905152451 94 50 4.0 7.0 0.00 0.00 0.00 55 1004.0
20260905151950 94 55 4.0 8.0 0.00 0.00 0.00 54 1004.1
20260905151449 95 51 3.0 8.0 0.00 0.00 0.00 53 1004.1
20260905150948 96 16 2.0 8.0 0.00 0.00 0.00 53 1004.1
20260905150447 97 23 2.0 8.0 0.00 0.00 0.00 53 1004.1
20260905145947 96 359 2.0 6.0 0.00 0.00 0.00 55 1004.1
20260905145448 95 330 2.0 6.0 0.00 0.00 0.00 56 1004.1
20260905144948 94 36 2.0 6.0 0.00 0.00 0.00 57 1004.1
20260905144447 94 27 2.0 6.0 0.00 0.00 0.00 57 1004.1
20260905144216 93 34 2.0 4.0 0.00 0.00 0.00 59 1004.0